User: anonymous   Login
Location: Champignolles
(47.0543°N, 4.5663°E)
Time: 16:43:15
(UTC+00:00)
Language:

NOSS 3-2 (C) - Orbit

View from above orbital plane
View from above orbital plane
View from above satellite
View from above satellite

Ground track
Ground track

The orbit data is extracted from the following two-line orbital elements,

1 28097U 03054C   21062.11648456 0.00000000  00000-0  00000-0 0    07
2 28097  63.4154  97.3910 0431518 359.5216   0.4258 13.40773756    05
Epoch (UTC): 03 March 2021 02:47:44
Eccentricity: 0.0431518
inclination: 63.4154°
perigee height: 783 km
apogee height: 1429 km
right ascension of ascending node: 97.3910°
argument of perigee: 359.5216°
revolutions per day: 13.40773756
mean anomaly at epoch: 0.4258°
orbit number at epoch: 0

The dashed part of the orbit path shows where the satellite is in the earth's shadow,  

DLR